SCP
-0 -0 -0 -0 -0 -0 0 0 0 -0 0 0 0 0 -0 0 0 0 0 0 0 0 0 0 0 0 0 0 0 0 0 0 0 0 0 0 0 0 0 0 0 0 0 0
-0 -0 -0 -0 0 0 0 0 0 0 0 0 0 0 0 0 0 -0 0 0 0 0 0 0 0 0 0 0 0 0 0 0 0 0 0 0 0 0 0 0 0 0 0 0
-0 -0 -0 -0 -0 0 0 0 0 0 0 0 0 0 0 0 -0 0 0 0 0 0 0 0 0 0 0 0 0 0 0 0 0 0 0 0 0 0 0 0 0 0 0 0
-0 -0 -0 -0 -0 0 0 0 0 0 0 0 0 0 0 0 0 0 0 0 0 0 0 0 0 0 0 0 0 0 0 0 0 0 0 0 0 0 0 0 0 0 0 0
-0 -0 -0 -0 -0 0 0 0 0 0 0 0 0 0 0 0 0 0 0 0 0 0 0 0 0 0 0 0 0 0 0 0 0 0 0 0 0 0 0 0 0 0 0 0
-0 -0 -0 -0 -0 0 0 0 0 0 0 0 0 0 0 0 0 0 0 0 0 0 0 0 0 0 0 0 0 0 0 0 0 0 0 0 0 0 0 0 0 0 0 0
-0 -0 -0 -0 -0 0 0 0 0 0 0 0 0 0 0 0 0 0 0 0 0 0 0 0 0 0 0 0 0 0 0 0 0 0 0 0 0 0 0 0 0 0 0 0
-0 -0 -0 -0 -0 -0 0 0 0 0 0 0 0 0 0 0 0 0 0 0 0 0 0 0 0 0 0 0 0 0 0 0 0 0 0 0 0 0 0 0 0 0 0 0
-0 -0 -0 -0 -0 -0 0 0 0 0 0 0 0 0 0 0 0 0 0 0 0 0 0 0 0 0 0 0 0 0 0 0 0 0 0 0 0 0 0 0 0 0 0 0
-0 -0 -0 -0 -0 -0 0 0 0 0 0 0 0 0 0 0 0 0 0 0 0 0 0 0 0 0 0 0 0 0 0 0 0 0 0 0 0 0 0 0 0 0 0 0
-0 -0 -0 -0 -0 -0 0 0 0 0 0 0 0 0 0 0 0 0 0 0 0 0 0 0 0 0 0 0 0 0 0 0 0 0 0 0 0 0 0 0 0 0 0 0
-0 -0 -0 -0 -0 -0 0 0 0 0 0 0 0 0 0 0 0 0 0 0 0 0 0 0 0 0 0 0 0 0 0 0 0 0 0 0 0 0 0 0 0 0 0 0
0 -0 -0 -0 0 0 0 0 0 0 0 0 0 0 0 0 0 0 0 0 0 0 0 0 0 0 0 0 0 0 0 0 0 0 0 0 0 0 0 0 0 0 0 0
0 0 0 0 0 0 0 0 0 0 0 0 0 0 0 0 0 0 0 0 0 0 0 0 0 0 0 0 0 0 0 0 0 0 0 -0 -0 0 0 0 0 0 0 0
0 0 0 0 0 0 0 0 0 0 0 0 0 0 -0 0 0 0 0 0 0 0 0 0 0 0 0 0 0 0 0 0 0 -0 -0 0 0 0 0 0 0 0 0 0
0 0 0 0 0 0 0 0 0 0 0 0 0 0 0 0 0 -0 -0 0 0 0 0 0 0 0 0 0 0 0 0 0 -0 0 0 0 0 0 0 0 0 0 0 0
0 0 0 0 0 0 0 0 0 0 0 0 0 0 0 0 0 0 0 -0 -0 0 0 0 0 0 0 0 0 0 0 0 0 0 0 0 0 0 0 0 0 0 0 0
0 0 0 0 0 0 0 0 -0 0 0 0 0 0 0 0 0 0 0 0 0 0 0 0 0 0 0 0 0 0 0 0 0 0 0 0 0 0 0 0 0 0 0 0
0 0 0 0 0 0 0 0 0 0 0 0 0 0 0 0 0 0 0 0 0 0 0 0 0 0 0 0 0 0 0 0 0 0 0 0 0 0 0 0 0 0 0 0
0 0 0 0 0 0 0 0 0 0 0 0 0 0 0 0 0 0 0 0 0 0 0 0 0 0 0 -0 0 0 0 0 0 0 0 0 0 0 0 0 0 0 0 0
0 0 0 0 0 0 0 0 0 0 0 0 0 0 0 0 0 0 0 0 0 0 0 0 0 0 0 0 0 -0 -0 0 0 0 0 0 0 0 0 0 0 0 0 0
0 0 0 0 0 0 0 0 0 0 0 0 0 0 0 0 0 0 0 0 0 0 0 0 0 0 0 0 -0 -0 -0 0 0 0 0 0 0 0 0 0 0 0 0 0
0 0 0 0 0 0 0 0 0 0 0 0 0 0 0 0 0 0 0 0 0 0 0 0 0 0 0 -0 -0 0 0 0 0 0 0 0 0 0 0 0 -0 -0 0 -0
0 0 0 0 0 0 0 0 0 0 0 0 0 0 0 0 0 0 0 0 0 0 0 0 0 0 0 0 0 0 0 0 0 0 0 0 0 0 0 0 0 0 0 0
0 0 0 0 0 0 0 0 0 0 0 0 0 0 0 0 0 0 0 0 0 0 0 0 0 0 0 0 0 0 0 0 0 0 0 0 0 0 0 0 0 0 0 0
0 0 0 0 0 0 0 0 0 0 0 0 0 0 0 0 0 0 0 0 0 0 0 0 0 0 0 0 0 0 -0 0 0 0 0 0 0 0 0 0 0 0 0 0
0 0 0 0 0 0 0 0 0 0 0 0 0 0 0 0 0 0 0 0 0 0 0 -0 -0 0 0 0 0 -0 0 0 0 0 0 0 0 0 0 0 0 0 0 0
Wind_Speed_500mb
46 47 47 49 39 28 13 2 3 29 42 8 4 5 9 13 22 24 9 7 10 6 13 17 8 9 6 21 7 7 6 10 4 6 7 7 13 5 8 8 15 4 7 7
45 46 45 47 46 32 20 9 7 38 42 5 5 15 16 19 22 4 8 12 10 7 9 8 8 4 7 16 8 8 3 5 6 19 16 12 11 10 7 5 4 3 4 9
44 45 45 44 40 26 17 3 5 9 40 20 4 7 14 13 15 7 11 4 7 12 15 13 10 16 17 17 17 18 15 6 12 12 13 8 10 13 10 10 4 5 8 9
44 44 46 45 35 22 10 6 3 7 4 8 9 10 11 7 12 8 24 15 18 6 13 10 9 14 17 16 16 11 9 6 9 12 13 7 6 11 16 9 13 6 11 20
45 41 45 45 35 16 19 8 11 14 10 22 11 9 14 12 14 10 9 16 20 26 11 6 5 7 5 3 10 7 8 3 3 5 8 13 9 14 13 12 19 5 10 10
45 35 39 44 39 20 11 17 5 7 13 14 6 5 7 11 6 25 23 15 11 18 7 13 17 18 22 18 7 3 3 7 5 8 9 11 11 9 16 8 19 4 10 8
43 29 32 36 37 33 31 32 9 8 7 8 7 14 18 16 12 3 13 25 13 4 12 23 28 24 24 22 25 25 11 9 8 8 6 4 16 14 24 32 27 21 19 17
37 29 28 31 31 19 24 39 17 8 3 15 18 32 12 22 29 12 15 16 14 9 8 9 10 11 11 11 14 14 17 10 3 7 7 9 6 11 5 3 10 19 15 22
33 28 26 28 28 17 14 33 32 4 2 11 19 4 18 6 9 15 9 10 15 16 8 7 3 4 6 10 16 17 15 10 9 4 6 9 5 8 22 3 6 3 19 13
29 25 23 24 24 18 12 22 30 4 4 17 26 12 5 10 6 3 7 21 16 14 5 4 3 6 5 5 7 9 9 7 6 2 5 0 9 19 15 2 9 17 9 12
25 22 20 20 22 18 8 16 18 13 2 13 13 14 10 10 12 6 14 8 15 10 9 5 5 5 4 6 6 3 2 3 4 4 2 7 35 12 8 8 12 23 30 26
21 19 18 18 18 18 17 13 9 8 9 2 7 18 5 3 10 9 8 7 6 6 7 3 3 5 6 3 5 9 8 6 5 5 9 2 15 22 11 18 28 36 44 50
18 15 16 17 18 19 17 16 31 11 3 5 4 9 7 8 2 4 3 7 8 8 8 6 4 2 6 2 7 5 9 12 7 6 7 6 12 7 33 57 50 60 53 50
15 11 13 15 18 17 10 7 20 31 4 4 5 11 6 5 14 9 4 7 2 6 6 2 4 3 7 5 8 7 4 6 0 6 6 31 7 52 60 64 62 59 52 52
13 10 10 12 13 11 7 1 12 24 15 4 5 6 12 4 4 9 9 5 5 4 4 5 4 5 4 8 5 1 2 9 6 8 14 16 46 59 57 53 59 60 63 70
11 9 10 10 10 4 8 5 5 14 18 4 4 3 17 14 6 1 4 5 5 5 1 5 4 5 4 2 4 10 15 15 6 10 26 40 54 55 62 66 75 73 69 70
11 9 9 10 9 9 4 4 1 17 9 3 8 11 8 11 7 10 13 15 11 10 5 5 3 2 4 3 5 13 23 11 11 30 36 46 52 61 81 81 79 72 74 65
11 9 8 8 10 1 2 5 11 22 4 2 2 8 2 12 5 5 14 6 18 7 4 0 1 6 3 2 9 5 12 24 37 49 54 62 69 78 76 75 71 77 75 64
9 6 4 2 6 1 4 16 21 7 4 2 2 6 7 7 7 6 4 4 5 3 4 3 6 5 2 12 15 26 28 30 51 61 64 69 66 72 71 69 72 69 72 66
6 4 3 4 1 9 22 3 2 4 6 6 7 6 2 7 9 9 6 6 1 4 6 3 5 5 17 11 12 21 32 43 50 61 66 69 76 74 71 65 70 74 77 73
9 4 2 3 9 6 4 4 6 8 5 11 11 5 6 7 7 2 5 4 1 4 8 5 4 4 8 16 25 33 40 48 53 57 64 64 64 61 65 69 73 72 71 66
11 6 4 3 3 4 2 6 7 7 8 14 15 11 10 8 4 7 5 4 5 6 3 3 4 6 14 19 34 44 44 53 59 52 55 61 58 62 61 65 72 74 64 58
9 3 3 5 6 3 7 8 7 5 10 15 19 6 8 7 4 6 6 2 7 2 2 4 7 14 15 26 42 44 48 60 63 60 63 62 59 62 65 71 71 68 60 48
8 8 5 8 7 8 9 7 6 14 18 28 23 14 8 7 5 6 4 6 2 3 3 7 7 14 18 36 40 45 55 65 58 59 64 58 63 72 82 71 62 58 48 42
7 7 7 10 19 21 35 19 9 23 27 23 16 9 7 2 6 3 7 3 6 7 6 7 17 15 29 38 41 51 60 58 57 61 62 57 72 75 73 62 52 44 35 37
6 9 6 17 9 14 10 19 17 15 29 23 11 7 6 1 8 4 8 2 5 3 7 9 13 29 34 36 44 52 54 52 59 54 47 60 66 62 59 56 47 43 33 37
7 10 18 28 27 18 9 18 12 16 15 5 7 5 7 2 4 3 7 6 3 17 18 23 28 25 35 41 42 52 43 47 54 46 59 62 56 57 51 60 56 41 36 31
Wind_Direction_500mb
357 354 352 347 345 360 349 354 40 170 162 133 201 196 223 321 308 338 3 24 51 39 43 9 89 55 55 46 56 68 325 126 46 261 272 225 131 103 111 97 301 243 165 267
358 355 355 352 343 357 4 345 297 177 177 139 272 281 282 276 273 278 46 15 28 7 56 72 20 95 114 103 91 148 289 39 30 344 349 5 48 357 105 153 53 356 68 259
359 357 357 356 344 348 345 2 19 191 209 233 179 291 276 292 218 148 108 116 39 40 30 40 25 11 10 45 89 79 74 86 144 187 226 217 319 334 355 113 98 227 225 241
1 359 359 3 360 15 46 36 18 19 291 308 281 196 275 291 4 57 27 47 45 59 43 32 51 7 0 23 25 28 88 154 179 215 236 330 328 348 336 349 248 179 249 226
1 1 2 8 15 32 45 41 18 346 287 301 343 8 355 54 16 46 24 90 74 68 89 116 306 36 65 257 346 36 7 280 51 333 333 355 339 321 336 327 338 15 119 50
360 2 8 9 22 38 39 23 24 314 332 331 42 313 17 34 69 40 53 103 91 60 28 347 317 289 270 238 207 256 179 128 68 266 303 3 343 284 292 72 28 257 65 8
1 7 12 15 16 29 39 27 15 3 316 23 357 32 54 34 39 107 47 68 88 26 340 329 327 310 298 282 268 185 180 136 139 217 48 329 239 20 87 83 35 37 54 39
4 9 11 16 18 27 34 34 32 24 358 346 351 6 10 28 19 9 100 81 88 13 28 38 9 339 350 290 247 245 176 123 118 151 183 277 28 17 348 343 55 23 35 18
4 7 10 13 19 34 36 32 31 32 51 342 341 16 26 53 354 360 77 75 58 45 76 67 126 259 261 320 330 35 66 81 124 119 165 231 229 288 336 267 146 54 53 40
1 5 8 12 18 28 39 31 25 82 5 22 37 38 6 12 28 90 4 341 1 24 69 65 193 258 277 347 35 336 355 3 129 124 245 66 351 337 355 258 249 337 28 34
353 1 5 8 15 20 15 15 15 34 22 39 35 33 37 49 55 98 321 44 5 31 55 85 303 43 314 47 293 84 154 94 294 27 247 237 348 26 88 273 340 344 341 335
346 352 358 356 2 11 20 22 1 254 216 172 49 48 51 105 58 7 33 117 37 55 82 34 74 350 16 135 301 330 22 166 192 125 197 245 62 100 71 10 338 325 314 307
338 341 347 349 350 352 358 10 23 97 31 269 214 175 101 81 124 330 111 79 38 48 44 160 176 21 123 323 275 352 344 34 72 65 211 247 218 264 319 322 315 312 304 299
324 324 338 346 354 354 356 47 45 40 357 43 105 143 138 296 256 289 242 84 61 350 345 101 127 158 189 224 226 137 237 65 100 269 301 327 235 309 312 313 310 310 302 297
315 302 320 329 347 17 125 22 31 16 12 284 284 278 199 276 185 70 102 97 86 42 26 58 251 250 33 331 56 31 155 177 132 236 266 257 287 310 319 313 312 307 296 292
299 289 289 315 335 344 199 289 21 357 349 291 352 137 177 179 270 282 165 227 256 211 239 277 280 76 44 83 236 218 166 165 222 254 297 300 301 307 317 312 314 315 304 297
283 276 282 290 310 323 240 233 158 347 339 324 325 322 210 226 240 249 243 233 241 228 234 192 197 24 344 128 219 251 190 223 306 328 315 306 309 300 311 307 303 308 314 302
273 273 273 284 298 227 84 120 327 330 215 230 106 278 194 200 248 245 218 222 220 233 184 245 317 334 8 288 265 222 262 282 291 315 314 304 305 307 307 306 306 305 309 309
266 263 274 131 130 88 334 312 309 301 182 195 297 165 224 177 10 65 84 52 37 14 55 290 93 326 267 237 300 310 295 300 305 313 312 311 310 312 314 311 308 299 305 307
225 190 142 132 69 304 308 320 249 225 193 217 242 271 284 101 45 39 37 37 98 37 269 335 84 257 309 347 350 330 315 316 318 316 314 316 312 315 320 320 317 311 309 310
163 143 191 181 301 301 239 253 199 183 233 210 225 212 115 60 92 184 42 172 23 48 276 103 301 278 282 331 327 326 321 323 320 317 317 318 316 315 318 320 321 314 311 306
169 193 240 244 259 245 242 238 262 181 223 181 161 139 114 111 85 87 22 96 44 249 215 84 249 247 276 320 328 331 334 333 331 330 329 331 326 326 323 317 320 326 316 309
167 210 209 207 221 42 215 211 245 196 181 147 153 135 129 130 114 85 72 28 222 294 49 228 233 260 287 321 330 331 336 334 333 326 330 332 331 328 329 323 320 316 312 306
184 190 305 170 228 232 205 225 243 209 178 163 172 149 143 131 98 138 99 245 54 256 222 240 250 276 302 331 336 336 334 337 336 336 334 334 335 335 337 330 324 321 313 302
213 220 221 215 238 273 282 279 166 102 148 154 140 100 114 107 104 83 71 340 250 207 234 237 315 332 325 336 336 339 340 340 339 338 337 338 337 338 339 344 339 335 327 320
234 237 271 264 282 327 19 238 80 131 122 107 86 92 69 228 127 120 218 212 247 251 241 307 352 342 340 336 335 342 343 342 346 348 351 346 347 348 351 5 10 11 5 352
240 246 251 269 281 275 11 62 82 90 105 109 108 102 202 167 107 214 184 213 270 36 25 359 339 332 341 334 337 342 346 351 351 355 353 351 355 2 4 4 4 3 356 2
Wind_Speed_850mb
46 47 47 49 39 28 13 2 3 29 42 8 4 5 9 13 22 24 9 7 10 6 13 17 8 9 6 21 7 7 6 10 4 6 7 7 13 5 8 8 15 4 7 7
45 46 45 47 46 32 20 9 7 38 42 5 5 15 16 19 22 4 8 12 10 7 9 8 8 4 7 16 8 8 3 5 6 19 16 12 11 10 7 5 4 3 4 9
44 45 45 44 40 26 17 3 5 9 40 20 4 7 14 13 15 7 11 4 7 12 15 13 10 16 17 17 17 18 15 6 12 12 13 8 10 13 10 10 4 5 8 9
44 44 46 45 35 22 10 6 3 7 4 8 9 10 11 7 12 8 24 15 18 6 13 10 9 14 17 16 16 11 9 6 9 12 13 7 6 11 16 9 13 6 11 20
45 41 45 45 35 16 19 8 11 14 10 22 11 9 14 12 14 10 9 16 20 26 11 6 5 7 5 3 10 7 8 3 3 5 8 13 9 14 13 12 19 5 10 10
45 35 39 44 39 20 11 17 5 7 13 14 6 5 7 11 6 25 23 15 11 18 7 13 17 18 22 18 7 3 3 7 5 8 9 11 11 9 16 8 19 4 10 8
43 29 32 36 37 33 31 32 9 8 7 8 7 14 18 16 12 3 13 25 13 4 12 23 28 24 24 22 25 25 11 9 8 8 6 4 16 14 24 32 27 21 19 17
37 29 28 31 31 19 24 39 17 8 3 15 18 32 12 22 29 12 15 16 14 9 8 9 10 11 11 11 14 14 17 10 3 7 7 9 6 11 5 3 10 19 15 22
33 28 26 28 28 17 14 33 32 4 2 11 19 4 18 6 9 15 9 10 15 16 8 7 3 4 6 10 16 17 15 10 9 4 6 9 5 8 22 3 6 3 19 13
29 25 23 24 24 18 12 22 30 4 4 17 26 12 5 10 6 3 7 21 16 14 5 4 3 6 5 5 7 9 9 7 6 2 5 0 9 19 15 2 9 17 9 12
25 22 20 20 22 18 8 16 18 13 2 13 13 14 10 10 12 6 14 8 15 10 9 5 5 5 4 6 6 3 2 3 4 4 2 7 35 12 8 8 12 23 30 26
21 19 18 18 18 18 17 13 9 8 9 2 7 18 5 3 10 9 8 7 6 6 7 3 3 5 6 3 5 9 8 6 5 5 9 2 15 22 11 18 28 36 44 50
18 15 16 17 18 19 17 16 31 11 3 5 4 9 7 8 2 4 3 7 8 8 8 6 4 2 6 2 7 5 9 12 7 6 7 6 12 7 33 57 50 60 53 50
15 11 13 15 18 17 10 7 20 31 4 4 5 11 6 5 14 9 4 7 2 6 6 2 4 3 7 5 8 7 4 6 0 6 6 31 7 52 60 64 62 59 52 52
13 10 10 12 13 11 7 1 12 24 15 4 5 6 12 4 4 9 9 5 5 4 4 5 4 5 4 8 5 1 2 9 6 8 14 16 46 59 57 53 59 60 63 70
11 9 10 10 10 4 8 5 5 14 18 4 4 3 17 14 6 1 4 5 5 5 1 5 4 5 4 2 4 10 15 15 6 10 26 40 54 55 62 66 75 73 69 70
11 9 9 10 9 9 4 4 1 17 9 3 8 11 8 11 7 10 13 15 11 10 5 5 3 2 4 3 5 13 23 11 11 30 36 46 52 61 81 81 79 72 74 65
11 9 8 8 10 1 2 5 11 22 4 2 2 8 2 12 5 5 14 6 18 7 4 0 1 6 3 2 9 5 12 24 37 49 54 62 69 78 76 75 71 77 75 64
9 6 4 2 6 1 4 16 21 7 4 2 2 6 7 7 7 6 4 4 5 3 4 3 6 5 2 12 15 26 28 30 51 61 64 69 66 72 71 69 72 69 72 66
6 4 3 4 1 9 22 3 2 4 6 6 7 6 2 7 9 9 6 6 1 4 6 3 5 5 17 11 12 21 32 43 50 61 66 69 76 74 71 65 70 74 77 73
9 4 2 3 9 6 4 4 6 8 5 11 11 5 6 7 7 2 5 4 1 4 8 5 4 4 8 16 25 33 40 48 53 57 64 64 64 61 65 69 73 72 71 66
11 6 4 3 3 4 2 6 7 7 8 14 15 11 10 8 4 7 5 4 5 6 3 3 4 6 14 19 34 44 44 53 59 52 55 61 58 62 61 65 72 74 64 58
9 3 3 5 6 3 7 8 7 5 10 15 19 6 8 7 4 6 6 2 7 2 2 4 7 14 15 26 42 44 48 60 63 60 63 62 59 62 65 71 71 68 60 48
8 8 5 8 7 8 9 7 6 14 18 28 23 14 8 7 5 6 4 6 2 3 3 7 7 14 18 36 40 45 55 65 58 59 64 58 63 72 82 71 62 58 48 42
7 7 7 10 19 21 35 19 9 23 27 23 16 9 7 2 6 3 7 3 6 7 6 7 17 15 29 38 41 51 60 58 57 61 62 57 72 75 73 62 52 44 35 37
6 9 6 17 9 14 10 19 17 15 29 23 11 7 6 1 8 4 8 2 5 3 7 9 13 29 34 36 44 52 54 52 59 54 47 60 66 62 59 56 47 43 33 37
7 10 18 28 27 18 9 18 12 16 15 5 7 5 7 2 4 3 7 6 3 17 18 23 28 25 35 41 42 52 43 47 54 46 59 62 56 57 51 60 56 41 36 31
Wind_Direction_850mb
357 354 352 347 345 360 349 354 40 170 162 133 201 196 223 321 308 338 3 24 51 39 43 9 89 55 55 46 56 68 325 126 46 261 272 225 131 103 111 97 301 243 165 267
358 355 355 352 343 357 4 345 297 177 177 139 272 281 282 276 273 278 46 15 28 7 56 72 20 95 114 103 91 148 289 39 30 344 349 5 48 357 105 153 53 356 68 259
359 357 357 356 344 348 345 2 19 191 209 233 179 291 276 292 218 148 108 116 39 40 30 40 25 11 10 45 89 79 74 86 144 187 226 217 319 334 355 113 98 227 225 241
1 359 359 3 360 15 46 36 18 19 291 308 281 196 275 291 4 57 27 47 45 59 43 32 51 7 0 23 25 28 88 154 179 215 236 330 328 348 336 349 248 179 249 226
1 1 2 8 15 32 45 41 18 346 287 301 343 8 355 54 16 46 24 90 74 68 89 116 306 36 65 257 346 36 7 280 51 333 333 355 339 321 336 327 338 15 119 50
360 2 8 9 22 38 39 23 24 314 332 331 42 313 17 34 69 40 53 103 91 60 28 347 317 289 270 238 207 256 179 128 68 266 303 3 343 284 292 72 28 257 65 8
1 7 12 15 16 29 39 27 15 3 316 23 357 32 54 34 39 107 47 68 88 26 340 329 327 310 298 282 268 185 180 136 139 217 48 329 239 20 87 83 35 37 54 39
4 9 11 16 18 27 34 34 32 24 358 346 351 6 10 28 19 9 100 81 88 13 28 38 9 339 350 290 247 245 176 123 118 151 183 277 28 17 348 343 55 23 35 18
4 7 10 13 19 34 36 32 31 32 51 342 341 16 26 53 354 360 77 75 58 45 76 67 126 259 261 320 330 35 66 81 124 119 165 231 229 288 336 267 146 54 53 40
1 5 8 12 18 28 39 31 25 82 5 22 37 38 6 12 28 90 4 341 1 24 69 65 193 258 277 347 35 336 355 3 129 124 245 66 351 337 355 258 249 337 28 34
353 1 5 8 15 20 15 15 15 34 22 39 35 33 37 49 55 98 321 44 5 31 55 85 303 43 314 47 293 84 154 94 294 27 247 237 348 26 88 273 340 344 341 335
346 352 358 356 2 11 20 22 1 254 216 172 49 48 51 105 58 7 33 117 37 55 82 34 74 350 16 135 301 330 22 166 192 125 197 245 62 100 71 10 338 325 314 307
338 341 347 349 350 352 358 10 23 97 31 269 214 175 101 81 124 330 111 79 38 48 44 160 176 21 123 323 275 352 344 34 72 65 211 247 218 264 319 322 315 312 304 299
324 324 338 346 354 354 356 47 45 40 357 43 105 143 138 296 256 289 242 84 61 350 345 101 127 158 189 224 226 137 237 65 100 269 301 327 235 309 312 313 310 310 302 297
315 302 320 329 347 17 125 22 31 16 12 284 284 278 199 276 185 70 102 97 86 42 26 58 251 250 33 331 56 31 155 177 132 236 266 257 287 310 319 313 312 307 296 292
299 289 289 315 335 344 199 289 21 357 349 291 352 137 177 179 270 282 165 227 256 211 239 277 280 76 44 83 236 218 166 165 222 254 297 300 301 307 317 312 314 315 304 297
283 276 282 290 310 323 240 233 158 347 339 324 325 322 210 226 240 249 243 233 241 228 234 192 197 24 344 128 219 251 190 223 306 328 315 306 309 300 311 307 303 308 314 302
273 273 273 284 298 227 84 120 327 330 215 230 106 278 194 200 248 245 218 222 220 233 184 245 317 334 8 288 265 222 262 282 291 315 314 304 305 307 307 306 306 305 309 309
266 263 274 131 130 88 334 312 309 301 182 195 297 165 224 177 10 65 84 52 37 14 55 290 93 326 267 237 300 310 295 300 305 313 312 311 310 312 314 311 308 299 305 307
225 190 142 132 69 304 308 320 249 225 193 217 242 271 284 101 45 39 37 37 98 37 269 335 84 257 309 347 350 330 315 316 318 316 314 316 312 315 320 320 317 311 309 310
163 143 191 181 301 301 239 253 199 183 233 210 225 212 115 60 92 184 42 172 23 48 276 103 301 278 282 331 327 326 321 323 320 317 317 318 316 315 318 320 321 314 311 306
169 193 240 244 259 245 242 238 262 181 223 181 161 139 114 111 85 87 22 96 44 249 215 84 249 247 276 320 328 331 334 333 331 330 329 331 326 326 323 317 320 326 316 309
167 210 209 207 221 42 215 211 245 196 181 147 153 135 129 130 114 85 72 28 222 294 49 228 233 260 287 321 330 331 336 334 333 326 330 332 331 328 329 323 320 316 312 306
184 190 305 170 228 232 205 225 243 209 178 163 172 149 143 131 98 138 99 245 54 256 222 240 250 276 302 331 336 336 334 337 336 336 334 334 335 335 337 330 324 321 313 302
213 220 221 215 238 273 282 279 166 102 148 154 140 100 114 107 104 83 71 340 250 207 234 237 315 332 325 336 336 339 340 340 339 338 337 338 337 338 339 344 339 335 327 320
234 237 271 264 282 327 19 238 80 131 122 107 86 92 69 228 127 120 218 212 247 251 241 307 352 342 340 336 335 342 343 342 346 348 351 346 347 348 351 5 10 11 5 352
240 246 251 269 281 275 11 62 82 90 105 109 108 102 202 167 107 214 184 213 270 36 25 359 339 332 341 334 337 342 346 351 351 355 353 351 355 2 4 4 4 3 356 2